User: anonymous   Login
Location: Unspecified
(0.0000°N, 0.0000°E)
Time: 11:08:55
(UTC+00:00)
Language:

COSMOS 2468 - Orbit

View from above orbital plane
View from above orbital plane
View from above satellite
View from above satellite

Ground track
Ground track

The orbit data is extracted from the following two-line orbital elements,

1 37154U 10043C   15062.10307616  .00000011  00000-0  10209-4 0  9994
2 37154 082.4630 123.9430 0012929 322.8261 037.1917 12.42896439203319
Epoch (UTC): 03 March 2015 02:28:25
Eccentricity: 0.0012929
inclination: 82.4630°
perigee height: 1484 km
apogee height: 1504 km
right ascension of ascending node: 123.9430°
argument of perigee: 322.8261°
revolutions per day: 12.42896439
mean anomaly at epoch: 37.1917°
orbit number at epoch: 20331

The dashed part of the orbit path shows where the satellite is in the earth's shadow,  

DLR